{"data":{"norad_id":51987,"epoch":"2026-09-20T04:29:04.120800Z","epoch_age_seconds":83200,"freshness":"FRESH","line1":"1 51987U 22025AH  26263.18685325  .00000246  00000+0  18437-4 0  9996","line2":"2 51987  53.1588 229.1033 0001355  98.6876 261.4280 15.34390145250656","mean_motion":15.34390145,"eccentricity":0.0001355,"inclination_deg":53.1588,"raan_deg":229.1033,"arg_perigee_deg":98.6876,"mean_anomaly_deg":261.428,"bstar":1.8437e-5,"rev_number":25065,"period_min":93.84836084176,"perigee_km":461.80559367921,"apogee_km":463.65946932225,"semimajor_km":6840.8695315007,"source":"CELESTRAK","updated_at":"2026-09-20T09:00:39.980386Z"}}